EW9945 Weather Reports


time (UTC)temp
C
wind
direction
speed
KPH
gust
KPH
rain 1hr
cm
rain 24hr
cm
rain mn
cm
humidity
%
barometer
mb
20260506103054 12 109 3.2 12.9 0.08 0.64 0.15 90 1004.6
20260506101552 12 84 1.6 8.0 0.13 0.61 0.13 90 1004.8
20260506100105 12 158 1.6 11.3 0.15 0.66 0.10 90 1004.9
20260506094551 12 117 3.2 8.0 0.15 0.66 0.10 90 1004.7
20260506093048 12 57 0.0 4.8 0.15 0.64 0.08 89 1004.8
20260506091552 12 167 0.0 6.4 0.13 0.56 0.00 88 1004.9
20260506090046 12 162 0.0 8.0 0.13 0.53 0.53 88 1005.2
20260506084545 12 267 0.0 3.2 0.13 0.51 0.51 88 1005.2
20260506083047 12 71 0.0 3.2 0.13 0.48 0.48 88 1005.3
20260506081545 12 175 0.0 12.9 0.13 0.46 0.46 90 1005.5
20260506073043 11 158 0.0 0.0 0.03 0.36 0.36 90 1005.7
20260506071547 11 157 0.0 0.0 0.00 0.33 0.33 90 1005.6
20260506061539 11 158 0.0 3.2 0.00 0.33 0.33 89 1005.9
20260506044540 12 158 0.0 0.0 0.00 0.33 0.33 86 1006.9
20260506043031 12 158 0.0 0.0 0.00 0.33 0.33 86 1006.8
20260506041530 13 158 0.0 0.0 0.00 0.33 0.33 85 1006.9
20260506040030 13 158 0.0 0.0 0.00 0.33 0.33 85 1006.7
20260506034530 13 158 0.0 0.0 0.00 0.33 0.33 84 1006.7
20260506033035 13 158 0.0 0.0 0.00 0.33 0.33 83 1006.7
20260506031534 13 158 0.0 3.2 0.00 0.33 0.33 84 1007.1
20260506030054 14 158 3.2 6.4 0.00 0.33 0.33 84 1006.8
20260506024534 14 164 0.0 0.0 0.00 0.33 0.33 85 1007.0
20260506023030 14 165 0.0 0.0 0.00 0.33 0.33 86 1007.0
20260506021531 14 165 0.0 0.0 0.00 0.33 0.33 87 1007.0
20260506020027 14 165 0.0 0.0 0.00 0.33 0.33 87 1006.8
20260506014525 15 165 0.0 0.0 0.00 0.33 0.33 84 1006.6
20260506013024 15 165 0.0 0.0 0.00 0.33 0.33 82 1006.6
20260506011531 16 165 0.0 0.0 0.00 0.33 0.33 81 1006.4
20260506010022 16 165 0.0 0.0 0.00 0.33 0.33 79 1006.1
20260506004540 16 165 0.0 0.0 0.00 0.33 0.33 79 1006.1
20260506003031 17 165 0.0 0.0 0.00 0.33 0.33 77 1006.0
20260506001523 17 165 0.0 0.0 0.00 0.33 0.33 77 1005.8
20260506000024 17 165 0.0 0.0 0.00 0.33 0.33 75 1005.7
20260505234520 17 165 0.0 0.0 0.00 0.33 0.33 76 1005.6
20260505233023 18 165 0.0 0.0 0.00 0.33 0.33 71 1005.7
20260505231526 18 121 0.0 0.0 0.00 0.33 0.33 71 1005.8
20260505230021 18 121 0.0 0.0 0.00 0.33 0.33 73 1005.6
20260505224517 18 121 0.0 0.0 0.00 0.33 0.33 72 1005.6
20260505223017 18 121 0.0 0.0 0.00 0.33 0.33 76 1005.8
20260505221519 19 121 0.0 0.0 0.00 0.33 0.33 74 1005.5
20260505220017 18 121 0.0 0.0 0.00 0.33 0.33 77 1005.3
20260505214517 18 121 0.0 0.0 0.05 0.33 0.33 79 1005.2
20260505213016 17 121 0.0 0.0 0.08 0.33 0.33 83 1005.2
20260505211516 16 121 0.0 0.0 0.08 0.33 0.33 84 1005.0
20260505210016 16 121 0.0 0.0 0.08 0.33 0.33 82 1005.1
20260505204516 18 155 1.6 22.5 0.05 0.30 0.30 70 1005.4
20260505203024 20 121 0.0 19.3 0.00 0.25 0.25 59 1004.6
20260505201515 21 327 1.6 25.7 0.00 0.25 0.25 57 1004.5
20260505200015 22 311 3.2 24.1 0.00 0.25 0.25 50 1004.4
20260505194513 21 342 6.4 12.9 0.00 0.25 0.25 62 1004.7
20260505193014 20 311 0.0 3.2 0.13 0.25 0.25 73 1004.9
20260505191513 18 311 0.0 12.9 0.18 0.25 0.25 79 1005.2
20260505190021 17 309 0.0 8.0 0.18 0.25 0.25 85 1005.3
20260505184517 16 307 4.8 12.9 0.18 0.25 0.25 84 1005.4
20260505183010 17 318 12.9 40.2 0.13 0.20 0.20 72 1005.6
20260505181510 22 123 4.8 17.7 0.00 0.08 0.08 43 1004.3
20260505180009 23 153 6.4 24.1 0.00 0.08 0.08 42 1003.9
20260505174506 23 113 1.6 14.5 0.00 0.08 0.08 43 1004.2
20260505173004 22 201 1.6 22.5 0.00 0.08 0.08 45 1004.4
20260505171505 22 33 0.0 14.5 0.00 0.08 0.08 45 1004.7
20260505170002 21 140 4.8 17.7 0.00 0.08 0.08 48 1005.0
20260505164502 21 132 3.2 22.5 0.00 0.08 0.08 49 1005.0
20260505163002 21 153 1.6 20.9 0.00 0.08 0.08 49 1004.8
20260505161603 21 138 1.6 12.9 0.00 0.08 0.08 48 1004.8
20260505153105 21 301 4.8 22.5 0.00 0.08 0.08 47 1005.5
20260505151558 22 343 4.8 17.7 0.00 0.08 0.08 46 1005.7
20260505124534 18 120 0.0 6.4 0.00 0.08 0.08 61 1006.0
20260505123042 17 146 0.0 19.3 0.00 0.08 0.08 64 1006.1
20260505121529 16 165 0.0 16.1 0.00 0.08 0.08 68 1006.4
20260505120038 15 105 0.0 19.3 0.00 0.08 0.08 71 1006.4
20260505114525 15 151 1.6 17.7 0.00 0.08 0.08 71 1006.2
20260505113021 15 109 0.0 11.3 0.00 0.08 0.08 75 1006.2
20260505111529 13 116 0.0 6.4 0.00 0.08 0.08 78 1005.9